Tracking 30109 objects as of 12-Dec-2024
HD Live streaming from Space Station
objects crossing your sky now

STARLINK-31628

Track STARLINK-31628 now!
10-day predictions
STARLINK-31628 is classified as:


NORAD ID: 59342
Int'l Code: 2024-057Y
Perigee: 449.5 km
Apogee: 453.0 km
Inclination: 43.0 °
Period: 93.5 minutes
Semi major axis: 6822 km
RCS: Unknown
Launch date: March 25, 2024
Source: United States (US)
Launch site: AIR FORCE EASTERN TEST RANGE (AFETR)
Your satellite tracking list
Your tracking list is empty




NASA's NSSDC Master Catalog

Two Line Element Set (TLE):
1 59342U 24057Y   24346.02254469  .00000601  00000-0  21692-4 0  9993
2 59342  43.0019 250.1730 0002574 284.2360  75.8211 15.40672980 40216
Source of the keplerian elements: AFSPC